Dobrodošli na spletni strani vremenske postaje Senovo. Vse informacije so informativnega značaja, saj vremenska postaja ni del državne mreže meteoroloških postaj. OBVESTILO: Letni količini padavin navedeni na spletni strani je potrebno prišteti 98,1 mm, zaradi izgube podatkov.


Dež Od: 15-12-2017 00:00 Do: 23:59 Opozorilo za: Dež Stopnja: Rumena info button
Veter Od: 15-12-2017 00:00 Do: 17:59 Opozorilo za: Veter Stopnja: Rumena info button

Pogled proti Armezu več informacij Pogled proti Armezu


Lisca več informacij Lisca


Radar strel več informacij blitzortung!


opozorilo za Dež več informacij rain snow radar


Obiščite še:

Template documentation
and downloads

And another site



Weather Underground, zgodovina - Tekstovno

Dnevni povzetek za Avgust 2, 2017 Enote:  Angleško    Metrično   Obe
« Predhodni Dan
Naslednji Dan »
Dnevni Tedenski Mesečni Letni Po meri
  Višja: Nižja: Povprečje:
Temperatura: 95.4 °F 65.5 °F 80.1 °F
Točka rosišča: 73.8 °F 60.3 °F 66.4 °F
Vlažnost: 93 % 39 % 67 %
Hitrost vetra: 10 mph 0 mph 2.1 mph
Sunki vetra: 21.9 mph - -
Veter:- - SE
Zračni tlak: 30.2 in 30 in -
Padavine: 0.66 in    
Historical Graphs
 
 
Tabelarni podarki za Avgust 2, 2017
Čas Temperatura Točka rosišča Zračni tlak Veter Hitrost vetra Sunki vetra Vlažnost Intenziteta padavin (urna)
00:03 70 °F 63.9 °F 30.1 in Calm     81 % 0 in
00:08 70 °F 63.9 °F 30.1 in Calm     81 % 0 in
00:09 70 °F 63.9 °F 30.1 in Calm     81 % 0 in
00:14 69.8 °F 63.7 °F 30.1 in Calm     81 % 0 in
00:19 69.6 °F 63.9 °F 30.1 in Calm     82 % 0 in
00:24 69.4 °F 63.7 °F 30.1 in Calm     82 % 0 in
00:29 69.3 °F 63.5 °F 30.1 in Calm     82 % 0 in
00:34 69.3 °F 63.9 °F 30.1 in Calm     83 % 0 in
00:39 69.1 °F 63.3 °F 30.1 in Calm     82 % 0 in
00:44 68.9 °F 63.5 °F 30.1 in Calm     83 % 0 in
00:49 68.7 °F 63.7 °F 30.1 in Calm     84 % 0 in
00:50 68.7 °F 63.7 °F 30 in Calm     84 % 0 in
00:55 68.5 °F 63.5 °F 30 in Calm     84 % 0 in
01:00 68.5 °F 63.5 °F 30 in Calm     84 % 0 in
01:05 68.4 °F 63.3 °F 30 in Calm     84 % 0 in
01:06 68.4 °F 63.3 °F 30 in Calm     84 % 0 in
01:11 68.2 °F 63.5 °F 30 in Calm     85 % 0 in
01:16 68 °F 63.3 °F 30 in Calm     85 % 0 in
01:21 67.8 °F 63.5 °F 30.1 in Calm     86 % 0 in
01:26 67.8 °F 63.5 °F 30.1 in Calm     86 % 0 in
01:31 67.6 °F 63.3 °F 30.1 in Calm     86 % 0 in
01:36 67.6 °F 63.3 °F 30.1 in Calm     86 % 0 in
01:41 67.5 °F 63.5 °F 30.1 in Calm     87 % 0 in
01:46 67.3 °F 63.3 °F 30.1 in Calm     87 % 0 in
01:51 67.3 °F 63.3 °F 30.1 in Calm     87 % 0 in
01:56 67.1 °F 63.1 °F 30.1 in Calm     87 % 0 in
02:01 67.1 °F 63.1 °F 30.1 in Calm     87 % 0 in
02:06 66.9 °F 63 °F 30.1 in Calm     87 % 0 in
02:11 66.9 °F 63.1 °F 30.1 in Calm     88 % 0 in
02:16 66.7 °F 63.1 °F 30.1 in Calm     88 % 0 in
02:21 66.7 °F 63.1 °F 30.1 in Calm     88 % 0 in
02:26 66.6 °F 63 °F 30.1 in Calm     88 % 0 in
02:31 66.6 °F 63.1 °F 30.1 in Calm     89 % 0 in
02:36 66.4 °F 63 °F 30.1 in Calm     89 % 0 in
02:41 66.4 °F 63 °F 30.1 in Calm     89 % 0 in
02:46 66.2 °F 63 °F 30.1 in Calm     89 % 0 in
02:51 66.2 °F 63 °F 30.1 in Calm     89 % 0 in
02:56 66.2 °F 63.1 °F 30.1 in Calm     90 % 0 in
03:01 66 °F 63 °F 30.1 in Calm     90 % 0 in
03:06 66 °F 63 °F 30 in Calm     90 % 0 in
03:11 66 °F 63 °F 30 in Calm     90 % 0 in
03:16 65.8 °F 62.8 °F 30 in Calm     90 % 0 in
03:21 65.8 °F 63.1 °F 30 in Calm     91 % 0 in
03:26 65.8 °F 63.1 °F 30 in Calm     91 % 0 in
03:31 65.7 °F 63 °F 30 in Calm     91 % 0 in
03:36 65.7 °F 63 °F 30.1 in Calm     91 % 0 in
03:41 65.7 °F 63 °F 30.1 in Calm     91 % 0 in
03:46 65.5 °F 62.8 °F 30.1 in Calm     91 % 0 in
03:51 65.5 °F 62.8 °F 30 in Calm     91 % 0 in
03:56 65.5 °F 62.8 °F 30 in Calm     91 % 0 in
04:01 65.5 °F 62.8 °F 30 in Calm     91 % 0 in
04:07 65.5 °F 62.8 °F 30.1 in Calm     91 % 0 in
04:11 65.5 °F 62.8 °F 30.1 in Calm     91 % 0 in
04:17 65.5 °F 63.1 °F 30.1 in Calm     92 % 0 in
04:21 65.5 °F 63.1 °F 30.1 in Calm     92 % 0 in
04:27 65.5 °F 63.1 °F 30.1 in Calm     92 % 0 in
04:32 65.7 °F 63.3 °F 30.1 in Calm     92 % 0 in
04:37 65.7 °F 63.3 °F 30.1 in Calm     92 % 0 in
04:42 65.7 °F 63.3 °F 30.1 in Calm     92 % 0 in
04:47 65.7 °F 63.3 °F 30.1 in Calm     92 % 0 in
04:52 65.7 °F 63.3 °F 30.1 in Calm     92 % 0 in
04:57 65.7 °F 63.3 °F 30.1 in Calm     92 % 0 in
05:02 65.7 °F 63.3 °F 30.1 in Calm     92 % 0 in
05:07 65.7 °F 63.3 °F 30.1 in Calm     92 % 0 in
05:12 65.7 °F 63.3 °F 30.1 in Calm     92 % 0 in
05:17 65.8 °F 63.9 °F 30.1 in Calm     93 % 0 in
05:22 65.8 °F 63.9 °F 30.1 in Calm     93 % 0 in
05:27 65.8 °F 63.9 °F 30.1 in Calm     93 % 0 in
05:32 66 °F 63.9 °F 30.1 in Calm     93 % 0 in
05:37 66 °F 63.9 °F 30.1 in Calm     93 % 0 in
05:42 66 °F 63.9 °F 30.1 in Calm     93 % 0 in
05:47 66.2 °F 64 °F 30.1 in Calm     93 % 0 in
05:52 66.2 °F 64 °F 30.1 in Calm     93 % 0 in
05:57 66.2 °F 63.9 °F 30.1 in Calm     92 % 0 in
06:02 66.2 °F 64 °F 30.1 in Calm     93 % 0 in
06:07 66.2 °F 64 °F 30 in Calm     93 % 0 in
06:12 66.4 °F 64.2 °F 30 in Calm     93 % 0 in
06:17 66.4 °F 64.2 °F 30 in Calm     93 % 0 in
06:22 66.6 °F 64.2 °F 30 in Calm     92 % 0 in
06:27 66.6 °F 64.6 °F 30 in Calm     93 % 0 in
06:32 66.6 °F 64.6 °F 30 in Calm     93 % 0 in
06:37 66.7 °F 64.8 °F 30.1 in Calm     93 % 0 in
06:42 66.9 °F 64.8 °F 30.1 in Calm     93 % 0 in
06:47 67.1 °F 64.9 °F 30.1 in Calm     93 % 0 in
06:52 67.3 °F 65.1 °F 30 in Calm     93 % 0 in
06:57 67.3 °F 65.1 °F 30 in Calm     93 % 0 in
07:02 67.5 °F 65.5 °F 30 in Calm     93 % 0 in
07:07 67.5 °F 65.5 °F 30.1 in Calm     93 % 0 in
07:12 67.6 °F 65.5 °F 30.1 in Calm     93 % 0 in
07:17 67.6 °F 65.5 °F 30.1 in West 0.1 mph 1.6 mph 93 % 0 in
07:22 67.8 °F 65.7 °F 30.1 in West 0.1 mph 1.6 mph 93 % 0 in
07:27 67.8 °F 65.7 °F 30.1 in Calm     93 % 0 in
07:32 68 °F 65.8 °F 30.1 in Calm     93 % 0 in
07:38 68 °F 65.8 °F 30.1 in Calm     93 % 0 in
07:43 68.2 °F 66 °F 30.1 in Calm     93 % 0 in
07:48 68.5 °F 66.4 °F 30.1 in Calm     93 % 0 in
07:53 68.9 °F 66.7 °F 30.1 in Calm     93 % 0 in
07:57 69.3 °F 67.1 °F 30.1 in South 0.1 mph 1.3 mph 93 % 0 in
08:03 69.6 °F 67.3 °F 30.1 in South 0.1 mph 1.3 mph 92 % 0 in
08:08 70 °F 67.3 °F 30.1 in Calm     91 % 0 in
08:13 70.3 °F 67.6 °F 30.1 in SSE 0.1 mph 2.2 mph 91 % 0 in
08:18 70.9 °F 68.2 °F 30.1 in SSE 0.1 mph 2.2 mph 91 % 0 in
08:23 71.4 °F 68.7 °F 30.1 in Calm   2.2 mph 91 % 0 in
08:28 72 °F 68.9 °F 30.1 in SSE 0.1 mph 2.2 mph 90 % 0 in
08:33 72.5 °F 69.1 °F 30.1 in SE 0.2 mph 2.2 mph 89 % 0 in
08:38 73.2 °F 69.8 °F 30.1 in SE 0.1 mph 1.3 mph 89 % 0 in
08:43 73.9 °F 70.2 °F 30.1 in Calm     88 % 0 in
08:48 74.8 °F 71.1 °F 30.1 in Calm     88 % 0 in
08:53 75.7 °F 71.2 °F 30.1 in Calm     86 % 0 in
08:58 76.5 °F 71.6 °F 30.1 in Calm     85 % 0 in
09:03 77.2 °F 71.2 °F 30.1 in Calm     82 % 0 in
09:08 77.9 °F 72 °F 30.1 in Calm     82 % 0 in
09:13 78.6 °F 72 °F 30.1 in Calm     80 % 0 in
09:18 79.3 °F 72 °F 30.1 in Calm     78 % 0 in
09:23 80.2 °F 72.3 °F 30.1 in Calm     77 % 0 in
09:28 81 °F 72.3 °F 30.1 in ESE 0.2 mph 2.5 mph 75 % 0 in
09:33 81.9 °F 72.3 °F 30.1 in ESE 0.7 mph 2.5 mph 73 % 0 in
09:38 82.4 °F 71.6 °F 30.1 in SE 0.9 mph 2.9 mph 70 % 0 in
09:43 82.8 °F 71.4 °F 30.1 in SE 1 mph 2.9 mph 69 % 0 in
09:48 83.5 °F 71.4 °F 30.1 in ESE 1.1 mph 2.7 mph 67 % 0 in
09:53 83.8 °F 71.2 °F 30.1 in SE 1.2 mph 3.4 mph 66 % 0 in
09:58 84.2 °F 69.8 °F 30.1 in SE 1.1 mph 3.4 mph 62 % 0 in
10:03 84.6 °F 70.5 °F 30.1 in ESE 0.9 mph 2.9 mph 63 % 0 in
10:08 85.3 °F 71.8 °F 30.1 in South 1.5 mph 3.4 mph 64 % 0 in
10:13 85.6 °F 72.1 °F 30.1 in SSW 1.7 mph 3.4 mph 64 % 0 in
10:18 86.4 °F 72.7 °F 30.1 in South 0.9 mph 3.4 mph 64 % 0 in
10:23 87.1 °F 73.4 °F 30.1 in SE 0.8 mph 3.4 mph 64 % 0 in
10:28 87.4 °F 73.8 °F 30.1 in South 2 mph 4.3 mph 64 % 0 in
10:33 88 °F 73.8 °F 30.1 in South 1.9 mph 4.3 mph 63 % 0 in
10:38 88.3 °F 72.1 °F 30.1 in SSE 2.4 mph 9.8 mph 59 % 0 in
10:43 88.9 °F 72.1 °F 30.1 in SE 4.3 mph 9.8 mph 58 % 0 in
10:48 89.1 °F 71.8 °F 30.1 in ESE 4.7 mph 9.8 mph 57 % 0 in
10:53 89.6 °F 70.2 °F 30.1 in ESE 4.8 mph 9.8 mph 53 % 0 in
10:58 89.8 °F 69.8 °F 30.1 in ESE 4.7 mph 8.1 mph 52 % 0 in
11:03 90.1 °F 70.2 °F 30.1 in SE 4.9 mph 8.1 mph 52 % 0 in
11:08 90.5 °F 70 °F 30.1 in SE 5.1 mph 7.4 mph 51 % 0 in
11:13 90.9 °F 69.6 °F 30.1 in SE 4.4 mph 10.5 mph 50 % 0 in
11:18 91.2 °F 68.7 °F 30.1 in ESE 4.4 mph 10.5 mph 48 % 0 in
11:23 91.8 °F 68.7 °F 30.1 in ESE 4.5 mph 7.4 mph 47 % 0 in
11:28 91.6 °F 67.3 °F 30.1 in ESE 3.9 mph 7.6 mph 45 % 0 in
11:30 91.6 °F 67.3 °F 30.1 in ESE 3.9 mph 7.6 mph 45 % 0 in
11:35 91.9 °F 68.2 °F 30.1 in East 3.4 mph 9.2 mph 46 % 0 in
11:40 92.1 °F 67.6 °F 30.1 in East 3.1 mph 9.2 mph 45 % 0 in
11:45 92.3 °F 66.6 °F 30.1 in East 2.8 mph 9.8 mph 43 % 0 in
11:50 92.3 °F 66.6 °F 30.1 in ENE 3.2 mph 9.8 mph 43 % 0 in
11:55 92.5 °F 66.7 °F 30.1 in ENE 3.9 mph 10.5 mph 43 % 0 in
12:00 92.7 °F 67.6 °F 30.1 in East 4.8 mph 10.5 mph 44 % 0 in
12:05 92.8 °F 67.6 °F 30.1 in East 4.6 mph 8.5 mph 44 % 0 in
12:10 93 °F 67.8 °F 30.1 in ESE 4.2 mph 10.3 mph 44 % 0 in
12:15 93.2 °F 67.5 °F 30.1 in ESE 4.9 mph 10.3 mph 43 % 0 in
12:20 93 °F 67.3 °F 30.1 in East 5.3 mph 9.6 mph 43 % 0 in
12:25 93 °F 66.6 °F 30.1 in East 5.7 mph 13 mph 42 % 0 in
12:30 93 °F 66.6 °F 30.1 in East 5.3 mph 13 mph 42 % 0 in
12:35 93 °F 66.6 °F 30.1 in East 4.7 mph 9.4 mph 42 % 0 in
12:40 93.2 °F 66.7 °F 30.1 in ESE 4.6 mph 8.5 mph 42 % 0 in
12:45 93.4 °F 66.2 °F 30.1 in East 4.7 mph 10.5 mph 41 % 0 in
12:50 93.4 °F 66.9 °F 30.1 in East 4.6 mph 10.5 mph 42 % 0 in
12:55 93.6 °F 66.9 °F 30.1 in East 3.8 mph 10.7 mph 42 % 0 in
13:00 93.6 °F 66.4 °F 30.1 in East 3.8 mph 10.7 mph 41 % 0 in
13:05 93.9 °F 67.3 °F 30.1 in East 4 mph 7.6 mph 42 % 0 in
13:10 93.9 °F 67.3 °F 30.1 in East 4.3 mph 7.6 mph 42 % 0 in
13:15 94.3 °F 67.6 °F 30.1 in ESE 4.4 mph 8.1 mph 42 % 0 in
13:20 94.3 °F 66.9 °F 30.1 in ESE 4 mph 8.1 mph 41 % 0 in
13:25 94.3 °F 66.9 °F 30.1 in ESE 5.1 mph 10.3 mph 41 % 0 in
13:30 94.5 °F 67.1 °F 30.1 in SE 5.4 mph 10.3 mph 41 % 0 in
13:35 94.8 °F 67.5 °F 30.1 in SE 4.3 mph 7.2 mph 41 % 0 in
13:40 94.8 °F 67.5 °F 30.1 in ESE 3.5 mph 7.4 mph 41 % 0 in
13:45 94.5 °F 67.1 °F 30.1 in ESE 3.8 mph 8.5 mph 41 % 0 in
13:50 94.5 °F 67.1 °F 30 in East 4.2 mph 8.5 mph 41 % 0 in
13:55 94.5 °F 67.1 °F 30 in East 3.5 mph 6.9 mph 41 % 0 in
14:00 94.3 °F 66.9 °F 30 in East 2.7 mph 6 mph 41 % 0 in
14:05 94.1 °F 66.7 °F 30 in ESE 2.9 mph 7.4 mph 41 % 0 in
14:10 94.1 °F 66.7 °F 30 in ESE 3.6 mph 7.4 mph 41 % 0 in
14:15 94.3 °F 66.9 °F 30 in SE 4.3 mph 7.4 mph 41 % 0 in
14:20 94.3 °F 66.9 °F 30.1 in ESE 3.7 mph 7.2 mph 41 % 0 in
14:25 94.3 °F 66.9 °F 30.1 in East 3.3 mph 8.5 mph 41 % 0 in
14:30 94.1 °F 66.7 °F 30.1 in East 3.7 mph 8.5 mph 41 % 0 in
14:35 94.1 °F 66.7 °F 30 in East 3.5 mph 7.2 mph 41 % 0 in
14:40 94.1 °F 66.7 °F 30 in East 4 mph 8.1 mph 41 % 0 in
14:45 94.1 °F 66.7 °F 30 in ESE 5 mph 8.1 mph 41 % 0 in
14:50 94.3 °F 66.9 °F 30 in ESE 5.4 mph 8.1 mph 41 % 0 in
14:55 94.3 °F 66.4 °F 30 in ESE 5.3 mph 8.5 mph 40 % 0 in
15:00 94.6 °F 67.3 °F 30 in ESE 5.4 mph 8.5 mph 41 % 0 in
15:06 94.6 °F 67.3 °F 30 in ESE 5.3 mph 8.7 mph 41 % 0 in
15:11 94.6 °F 67.3 °F 30 in ESE 4.8 mph 8.7 mph 41 % 0 in
15:16 94.8 °F 67.5 °F 30 in ESE 3.7 mph 7.6 mph 41 % 0 in
15:21 94.8 °F 67.5 °F 30 in East 3.3 mph 7.6 mph 41 % 0 in
15:26 94.8 °F 67.5 °F 30 in East 3.6 mph 9.8 mph 41 % 0 in
15:31 94.5 °F 67.1 °F 30 in East 4.3 mph 9.8 mph 41 % 0 in
15:36 94.8 °F 68.2 °F 30.1 in ESE 4.2 mph 9.6 mph 42 % 0 in
15:41 94.8 °F 67.5 °F 30.1 in ESE 4.1 mph 7.8 mph 41 % 0 in
15:46 94.8 °F 67.5 °F 30.1 in ESE 4.8 mph 7.4 mph 41 % 0 in
15:51 94.8 °F 67.5 °F 30.1 in ESE 4.5 mph 7.8 mph 41 % 0 in
15:56 95 °F 67.6 °F 30.1 in ESE 4.7 mph 10.1 mph 41 % 0 in
16:01 95.2 °F 67.8 °F 30.1 in ESE 4.7 mph 10.5 mph 41 % 0 in
16:07 95.4 °F 67.8 °F 30.1 in ESE 4.9 mph 10.5 mph 41 % 0 in
16:12 95.4 °F 67.8 °F 30.1 in ESE 5.3 mph 8.1 mph 41 % 0 in
16:17 94.8 °F 67.5 °F 30.1 in East 4.3 mph 8.1 mph 41 % 0 in
16:22 94.6 °F 66.6 °F 30.1 in East 3.5 mph 7.4 mph 40 % 0 in
16:27 94.6 °F 67.3 °F 30.1 in East 3.7 mph 8.1 mph 41 % 0 in
16:32 94.5 °F 67.1 °F 30.1 in East 4.4 mph 8.7 mph 41 % 0 in
16:37 94.8 °F 67.5 °F 30.1 in ESE 5.2 mph 8.7 mph 41 % 0 in
16:42 94.8 °F 66.7 °F 30.1 in SE 5.4 mph 9.8 mph 40 % 0 in
16:47 94.6 °F 66.6 °F 30.1 in ESE 4.2 mph 9.8 mph 40 % 0 in
16:52 94.6 °F 66.6 °F 30.1 in East 3.2 mph 7.6 mph 40 % 0 in
16:57 94.6 °F 66.6 °F 30.1 in ESE 3.8 mph 8.1 mph 40 % 0 in
17:02 94.6 °F 66.6 °F 30.1 in SE 4.9 mph 11 mph 40 % 0 in
17:04 94.8 °F 66.7 °F 30 in SE 5 mph 11 mph 40 % 0 in
17:09 95 °F 66.9 °F 30 in ESE 4.5 mph 7.8 mph 40 % 0 in
17:14 94.8 °F 66.7 °F 30 in ESE 4.8 mph 8.5 mph 40 % 0 in
17:19 94.8 °F 66 °F 30.1 in ESE 4.7 mph 8.5 mph 39 % 0 in
17:24 94.6 °F 66.6 °F 30.1 in East 3.5 mph 7.2 mph 40 % 0 in
17:29 94.5 °F 66.4 °F 30.1 in East 3.2 mph 7.2 mph 40 % 0 in
17:34 94.3 °F 66.4 °F 30.1 in East 2.8 mph 8.1 mph 40 % 0 in
17:39 93.9 °F 65.8 °F 30.1 in East 3.6 mph 8.1 mph 40 % 0 in
17:44 93.9 °F 65.8 °F 30.1 in East 4 mph 7.2 mph 40 % 0 in
17:49 93.9 °F 65.1 °F 30.1 in East 3.2 mph 7.4 mph 39 % 0 in
17:54 93.7 °F 65.8 °F 30.1 in East 2.7 mph 7.4 mph 40 % 0 in
17:59 93.7 °F 65.8 °F 30.1 in East 2.8 mph 6.3 mph 40 % 0 in
18:04 93.6 °F 65.7 °F 30 in ESE 2.5 mph 6.3 mph 40 % 0 in
18:09 93.2 °F 66 °F 30 in East 1.9 mph 6.3 mph 41 % 0 in
18:14 92.7 °F 66.2 °F 30 in East 1.7 mph 6.3 mph 42 % 0 in
18:19 92.1 °F 65.7 °F 30 in ESE 1.7 mph 4.9 mph 42 % 0 in
18:24 91.8 °F 66 °F 30 in ESE 2.1 mph 4.3 mph 43 % 0 in
18:29 91.4 °F 65.8 °F 30 in ESE 2.7 mph 6 mph 43 % 0 in
18:34 91 °F 66 °F 30 in ESE 2.7 mph 6 mph 44 % 0 in
18:39 90.7 °F 65.8 °F 30 in ESE 2.1 mph 4.9 mph 44 % 0 in
18:44 90.3 °F 66 °F 30 in ESE 1.8 mph 4.9 mph 45 % 0 in
18:49 90.1 °F 65.8 °F 30 in SE 2.6 mph 5.8 mph 45 % 0 in
18:54 90 °F 66.4 °F 30 in ESE 2.6 mph 5.8 mph 46 % 0 in
18:59 89.8 °F 66.9 °F 30 in SE 2.4 mph 4.3 mph 47 % 0 in
19:04 89.4 °F 67.1 °F 30 in SE 2.8 mph 4.3 mph 48 % 0 in
19:09 89.2 °F 66.9 °F 30 in SE 2.8 mph 5.6 mph 48 % 0 in
19:14 88.9 °F 67.3 °F 30 in SE 2.9 mph 5.6 mph 49 % 0 in
19:19 88.5 °F 67.5 °F 30 in ESE 2.3 mph 4.7 mph 50 % 0 in
19:24 88.2 °F 68.9 °F 30 in ESE 1.2 mph 4.7 mph 53 % 0 in
19:29 87.8 °F 69.1 °F 30 in ESE 0.2 mph 1.1 mph 54 % 0 in
19:34 87.3 °F 69.6 °F 30 in Calm   1.6 mph 56 % 0 in
19:39 86.5 °F 70.5 °F 30 in NE 0.1 mph 2 mph 59 % 0 in
19:44 86 °F 70 °F 30 in NNW 0.3 mph 2 mph 59 % 0 in
19:49 85.3 °F 70.3 °F 30.1 in NNW 0.2 mph 2 mph 61 % 0 in
19:54 84.6 °F 70.2 °F 30.1 in NNW 0.1 mph 1.1 mph 62 % 0 in
19:59 84.2 °F 69.8 °F 30.1 in Calm   0.9 mph 62 % 0 in
20:04 83.7 °F 69.6 °F 30.1 in NNW 0.6 mph 3.1 mph 63 % 0 in
20:06 83.5 °F 69.6 °F 30.1 in NNW 0.7 mph 3.1 mph 63 % 0 in
20:11 82.9 °F 70.3 °F 30.1 in NNW 0.7 mph 3.1 mph 66 % 0 in
20:16 82.6 °F 70.5 °F 30.1 in Calm   0.9 mph 67 % 0 in
20:21 82.2 °F 70.5 °F 30 in Calm   0.9 mph 68 % 0 in
20:26 81.7 °F 70.5 °F 30 in Calm   0.9 mph 69 % 0 in
20:31 81.1 °F 70 °F 30 in Calm     69 % 0 in
20:36 81 °F 69.8 °F 30.1 in Calm     69 % 0 in
20:41 80.6 °F 70 °F 30.1 in Calm     70 % 0 in
20:46 80.1 °F 69.8 °F 30.1 in Calm     71 % 0 in
20:51 79.9 °F 69.6 °F 30.1 in Calm     71 % 0 in
20:56 79.5 °F 70.2 °F 30.1 in Calm     73 % 0 in
21:01 79.3 °F 70 °F 30.1 in Calm     73 % 0 in
21:06 79 °F 70 °F 30.1 in Calm     74 % 0 in
21:11 78.8 °F 69.8 °F 30.1 in Calm     74 % 0 in
21:16 78.6 °F 70 °F 30.1 in Calm     75 % 0 in
21:21 78.4 °F 70 °F 30.1 in Calm     75 % 0 in
21:26 78.3 °F 69.6 °F 30.1 in Calm     75 % 0 in
21:31 78.3 °F 69.6 °F 30.1 in Calm     75 % 0 in
21:36 78.1 °F 70 °F 30.1 in Calm     76 % 0 in
21:41 78.3 °F 68.9 °F 30.1 in NE 1.1 mph 18.8 mph 73 % 0 in
21:46 79.7 °F 66 °F 30.1 in NNE 4.4 mph 19.7 mph 63 % 0 in
21:51 80.2 °F 65.1 °F 30.1 in North 8.8 mph 21.9 mph 60 % 0 in
21:56 80.1 °F 64 °F 30.1 in North 10 mph 21.9 mph 58 % 0 in
22:01 79.7 °F 63.1 °F 30.1 in NNE 8.9 mph 21.9 mph 57 % 0 in
22:06 79.3 °F 63.9 °F 30.1 in NNE 7.3 mph 13.9 mph 59 % 0 in
22:11 79.2 °F 64 °F 30.1 in North 5.8 mph 11 mph 60 % 0 in
22:16 78.6 °F 63.7 °F 30.1 in NNE 5.8 mph 11.9 mph 60 % 0 in
22:21 78.6 °F 64 °F 30.1 in NNE 6.1 mph 11.9 mph 61 % 0 in
22:26 78.6 °F 64 °F 30.1 in NNE 5.9 mph 12.1 mph 61 % 0 in
22:31 78.8 °F 62.8 °F 30.1 in NE 6.5 mph 12.8 mph 58 % 0 in
22:36 78.8 °F 61.9 °F 30.2 in North 6 mph 19.2 mph 56 % 0 in
22:41 78.8 °F 60.6 °F 30.2 in NW 5.8 mph 19.2 mph 54 % 0 in
22:46 78.4 °F 61 °F 30.2 in North 6.5 mph 13 mph 55 % 0 in
22:51 78.3 °F 60.3 °F 30.2 in North 6 mph 13 mph 54 % 0 in
22:56 77.9 °F 60.4 °F 30.2 in NW 7.3 mph 13.2 mph 55 % 0 in
23:01 76.8 °F 61.9 °F 30.2 in NW 7.4 mph 13.2 mph 60 % 0.01 in
23:06 75.2 °F 62.2 °F 30.2 in NNW 6.4 mph 12.5 mph 64 % 0.09 in
23:11 73.2 °F 62.8 °F 30.2 in North 5.3 mph 14.3 mph 70 % 0.22 in
23:16 71.4 °F 62.8 °F 30.2 in NNE 6 mph 14.3 mph 74 % 0.39 in
23:21 70.7 °F 62.8 °F 30.2 in ENE 5.5 mph 6.3 mph 76 % 0.41 in
23:25 70.2 °F 62.6 °F 30.2 in NE 4.2 mph 6.3 mph 77 % 0.49 in
23:30 69.6 °F 62.4 °F 30.2 in NNE 3.3 mph 6.3 mph 78 % 0.6 in
23:35 69.6 °F 62.1 °F 30.2 in North 3 mph 6 mph 77 % 0.64 in
23:40 69.8 °F 61.9 °F 30.2 in North 3.4 mph 6 mph 76 % 0.65 in
23:45 69.6 °F 63.1 °F 30.2 in North 3.4 mph 6 mph 80 % 0.65 in
23:50 69.1 °F 63 °F 30.2 in NNW 3.6 mph 6 mph 81 % 0.66 in
Vremenska postaja Senovo
Podatki zbrani iz Weather Underground - 3 mb

Script developed by  Jim McMurry - jmcmurry@mwt.net Adapted for the template by  Wim van der Kuil - Leuven-Template.eu

Vremenski podatki so objavljeni na:

WeatherCloud

Weather Underground

AWEKAS

HAMweather, WeatherForYou, PWS Weather

MapView

Geostik

Slovenia weather network

Oprema, ki se uporablja:

Vremenski program
Cumulus

Cumulus